BZN168 LOWW-LHBP

Flight info

Callsign BZN168
Flight time 0h 35m
Altitude 19000
Route ADAMA DCT VAJDI
Aircraft B738/M-SDE2E3FGHIRWXY/LB1

Departure

Time 2026-05-06 07:59
Airport Vienna International Airport (LOWW)

Arrival

Time 2026-05-06 08:35
Airport Budapest Liszt Ferenc International Airport (LHBP)
Time Latitude Longitude Altitude Speed Heading
2026-05-06 07:44 48.11936 16.55806 609 ft 0 kts 296°
2026-05-06 07:48 48.11930 16.55827 625 ft 2 kts 296°
2026-05-06 07:49 48.11922 16.55849 620 ft 2 kts 296°
2026-05-06 07:49 48.11916 16.55872 619 ft 2 kts 270°
2026-05-06 07:49 48.11918 16.55896 625 ft 2 kts 249°
2026-05-06 07:49 48.11926 16.55918 613 ft 2 kts 232°
2026-05-06 07:50 48.11932 16.55929 616 ft 0 kts 214°
2026-05-06 07:50 48.11933 16.55929 616 ft 0 kts 213°
2026-05-06 07:52 48.11932 16.55929 616 ft 1 kts 213°
2026-05-06 07:52 48.11871 16.55883 619 ft 16 kts 205°
2026-05-06 07:53 48.11765 16.55809 616 ft 17 kts 206°
2026-05-06 07:53 48.11701 16.55802 620 ft 16 kts 151°
2026-05-06 07:53 48.11669 16.55871 619 ft 16 kts 116°
2026-05-06 07:53 48.11621 16.56018 614 ft 15 kts 114°
2026-05-06 07:54 48.11576 16.56160 613 ft 15 kts 116°
2026-05-06 07:54 48.11532 16.56295 612 ft 14 kts 118°
2026-05-06 07:54 48.11486 16.56424 616 ft 14 kts 118°
2026-05-06 07:54 48.11441 16.56567 621 ft 16 kts 114°
2026-05-06 07:55 48.11390 16.56722 611 ft 18 kts 116°
2026-05-06 07:55 48.11334 16.56897 613 ft 20 kts 116°
2026-05-06 07:55 48.11270 16.57091 622 ft 22 kts 115°
2026-05-06 07:55 48.11248 16.57268 617 ft 16 kts 51°
2026-05-06 07:56 48.11339 16.57349 609 ft 15 kts 26°
2026-05-06 07:56 48.11406 16.57398 618 ft 17 kts 26°
2026-05-06 07:56 48.11546 16.57456 621 ft 20 kts 349°
2026-05-06 07:56 48.11701 16.57390 614 ft 26 kts 345°
2026-05-06 07:57 48.11880 16.57314 612 ft 26 kts 344°
2026-05-06 07:57 48.11989 16.57343 611 ft 16 kts 57°
2026-05-06 07:57 48.12012 16.57500 609 ft 15 kts 96°
2026-05-06 07:57 48.11998 16.57581 612 ft 0 kts 106°
2026-05-06 07:58 48.11997 16.57585 611 ft 3 kts 106°
2026-05-06 07:58 48.11997 16.57587 609 ft 4 kts 105°
2026-05-06 07:58 48.11987 16.57648 616 ft 13 kts 103°
2026-05-06 07:58 48.11969 16.57749 615 ft 14 kts 110°
2026-05-06 07:59 48.11889 16.57856 621 ft 23 kts 161°
2026-05-06 07:59 48.11623 16.57966 615 ft 72 kts 163°
2026-05-06 07:59 48.10858 16.58286 616 ft 152 kts 162°
2026-05-06 07:59 48.09752 16.58746 1283 ft 171 kts 166°
2026-05-06 08:00 48.08614 16.59139 2392 ft 169 kts 168°
2026-05-06 08:00 48.07527 16.59402 3680 ft 151 kts 172°
2026-05-06 08:00 48.06470 16.59599 4271 ft 170 kts 174°
2026-05-06 08:00 48.05172 16.59772 4629 ft 199 kts 175°
2026-05-06 08:01 48.03780 16.60098 5134 ft 210 kts 155°
2026-05-06 08:01 48.02809 16.61702 5738 ft 216 kts 109°
2026-05-06 08:01 48.02838 16.63960 6358 ft 228 kts 71°
2026-05-06 08:01 48.03725 16.65939 6959 ft 237 kts 43°
2026-05-06 08:02 48.04913 16.67771 7181 ft 256 kts 65°
2026-05-06 08:02 48.05224 16.70400 7465 ft 271 kts 102°
2026-05-06 08:02 48.04499 16.72711 7951 ft 275 kts 133°
2026-05-06 08:02 48.03349 16.75006 8713 ft 282 kts 116°
2026-05-06 08:03 48.02865 16.77359 9367 ft 289 kts 104°
2026-05-06 08:03 48.02844 16.77520 9412 ft 289 kts 103°
2026-05-06 08:03 48.02776 16.78111 9568 ft 291 kts 102°
2026-05-06 08:04 48.02731 16.78568 9689 ft 292 kts 101°
2026-05-06 08:04 48.02497 16.81616 10295 ft 302 kts 98°
2026-05-06 08:04 48.02332 16.84227 10449 ft 322 kts 98°
2026-05-06 08:04 48.02120 16.87669 10635 ft 344 kts 98°
2026-05-06 08:05 48.01895 16.91202 10863 ft 360 kts 98°
2026-05-06 08:05 48.01670 16.94586 11255 ft 368 kts 98°
2026-05-06 08:05 48.01405 16.98434 11888 ft 376 kts 98°
2026-05-06 08:05 48.01128 17.02342 12713 ft 381 kts 99°
2026-05-06 08:06 48.00843 17.06299 13466 ft 388 kts 99°
2026-05-06 08:06 48.00552 17.10286 14131 ft 394 kts 99°
2026-05-06 08:06 48.00248 17.14428 14905 ft 397 kts 99°
2026-05-06 08:06 47.99978 17.18088 15586 ft 400 kts 99°
2026-05-06 08:07 47.99672 17.22214 16313 ft 404 kts 98°
2026-05-06 08:07 47.99362 17.26368 17073 ft 407 kts 98°
2026-05-06 08:07 47.99074 17.29715 17626 ft 410 kts 103°
2026-05-06 08:07 47.98215 17.33764 18269 ft 410 kts 118°
2026-05-06 08:08 47.97680 17.35308 18539 ft 409 kts 123°
2026-05-06 08:08 47.96584 17.37764 18699 ft 405 kts 132°
2026-05-06 08:08 47.95000 17.40356 18798 ft 401 kts 137°
2026-05-06 08:08 47.93037 17.43362 18880 ft 410 kts 138°
2026-05-06 08:09 47.91015 17.46432 18886 ft 419 kts 137°
2026-05-06 08:09 47.89067 17.49402 18873 ft 418 kts 137°
2026-05-06 08:09 47.87590 17.51673 18876 ft 415 kts 137°
2026-05-06 08:09 47.85873 17.54325 18881 ft 414 kts 137°
2026-05-06 08:10 47.83885 17.57409 18874 ft 412 kts 137°
2026-05-06 08:10 47.81900 17.60493 18881 ft 412 kts 136°
2026-05-06 08:10 47.79916 17.63576 18904 ft 413 kts 136°
2026-05-06 08:10 47.78400 17.65928 18909 ft 414 kts 136°
2026-05-06 08:11 47.76285 17.69209 18915 ft 415 kts 136°
2026-05-06 08:11 47.74285 17.72309 18913 ft 416 kts 136°
2026-05-06 08:11 47.72345 17.75310 18912 ft 417 kts 136°
2026-05-06 08:11 47.70746 17.77783 18912 ft 417 kts 136°
2026-05-06 08:12 47.68736 17.80888 18912 ft 417 kts 136°
2026-05-06 08:12 47.68219 17.81685 18892 ft 417 kts 136°
2026-05-06 08:12 47.66680 17.84059 18892 ft 416 kts 136°
2026-05-06 08:12 47.64889 17.86819 18895 ft 416 kts 137°
2026-05-06 08:13 47.64492 17.87431 18896 ft 415 kts 137°
2026-05-06 08:13 47.62524 17.90459 18893 ft 415 kts 136°
2026-05-06 08:13 47.60572 17.93459 18898 ft 414 kts 136°
2026-05-06 08:13 47.58677 17.96369 18905 ft 414 kts 136°
2026-05-06 08:14 47.56705 17.99392 18903 ft 414 kts 136°
2026-05-06 08:14 47.54705 18.02455 18910 ft 414 kts 137°
2026-05-06 08:14 47.52885 18.05240 18908 ft 414 kts 137°
2026-05-06 08:14 47.50978 18.08154 18911 ft 414 kts 137°
2026-05-06 08:15 47.48975 18.11213 18906 ft 414 kts 137°
2026-05-06 08:15 47.46968 18.14272 18903 ft 414 kts 137°
2026-05-06 08:15 47.45735 18.16152 18908 ft 414 kts 137°
2026-05-06 08:15 47.43746 18.19181 18884 ft 404 kts 136°
2026-05-06 08:16 47.42077 18.21724 18799 ft 393 kts 137°
2026-05-06 08:16 47.40129 18.24683 18454 ft 388 kts 137°
2026-05-06 08:16 47.38386 18.27333 18009 ft 386 kts 136°
2026-05-06 08:16 47.36732 18.30377 17513 ft 386 kts 125°
2026-05-06 08:17 47.35657 18.32971 17160 ft 384 kts 123°
2026-05-06 08:17 47.34305 18.36355 16681 ft 382 kts 123°
2026-05-06 08:17 47.33069 18.39460 16246 ft 379 kts 123°
2026-05-06 08:17 47.32645 18.40522 16095 ft 378 kts 123°
2026-05-06 08:18 47.31875 18.42441 15830 ft 377 kts 123°
2026-05-06 08:18 47.30643 18.45489 15397 ft 375 kts 124°
2026-05-06 08:18 47.29383 18.48588 14973 ft 373 kts 124°
2026-05-06 08:18 47.28046 18.51855 14505 ft 372 kts 123°
2026-05-06 08:19 47.26714 18.55099 14046 ft 369 kts 123°
2026-05-06 08:19 47.25410 18.58274 13586 ft 366 kts 124°
2026-05-06 08:19 47.24266 18.61058 13153 ft 364 kts 124°
2026-05-06 08:19 47.22959 18.64236 12668 ft 361 kts 124°
2026-05-06 08:20 47.21699 18.67292 12216 ft 358 kts 125°
2026-05-06 08:20 47.20699 18.69807 11843 ft 358 kts 120°
2026-05-06 08:20 47.20092 18.72645 11450 ft 364 kts 100°
2026-05-06 08:20 47.20244 18.76352 11001 ft 368 kts 78°
2026-05-06 08:21 47.21279 18.79787 10680 ft 366 kts 59°
2026-05-06 08:21 47.22326 18.82171 10498 ft 352 kts 59°
2026-05-06 08:21 47.23509 18.84848 10351 ft 335 kts 59°
2026-05-06 08:21 47.24731 18.87655 10255 ft 317 kts 60°
2026-05-06 08:22 47.25881 18.90329 10084 ft 304 kts 60°
2026-05-06 08:22 47.26521 18.91828 10004 ft 296 kts 60°
2026-05-06 08:22 47.27024 18.93012 9917 ft 291 kts 60°
2026-05-06 08:22 47.27250 18.93546 9880 ft 289 kts 61°
2026-05-06 08:23 47.28183 18.95745 9630 ft 284 kts 61°
2026-05-06 08:23 47.29174 18.98086 9362 ft 285 kts 61°
2026-05-06 08:23 47.30223 19.00564 9092 ft 287 kts 60°
2026-05-06 08:23 47.31471 19.02862 8808 ft 302 kts 44°
2026-05-06 08:24 47.33094 19.04939 8475 ft 305 kts 42°
2026-05-06 08:24 47.34677 19.06978 8166 ft 299 kts 43°
2026-05-06 08:24 47.36249 19.08975 7957 ft 297 kts 35°
2026-05-06 08:24 47.37652 19.09960 7823 ft 290 kts 11°
2026-05-06 08:25 47.39419 19.10095 7704 ft 278 kts 346°
2026-05-06 08:25 47.41209 19.09190 7453 ft 269 kts 324°
2026-05-06 08:25 47.42654 19.07532 7199 ft 260 kts 308°
2026-05-06 08:25 47.43872 19.05579 6964 ft 258 kts 305°
2026-05-06 08:26 47.45063 19.03592 6703 ft 259 kts 305°
2026-05-06 08:26 47.46195 19.01705 6466 ft 258 kts 307°
2026-05-06 08:26 47.47393 18.99725 6161 ft 259 kts 307°
2026-05-06 08:26 47.48601 18.97748 5840 ft 260 kts 307°
2026-05-06 08:27 47.49814 18.95765 5558 ft 260 kts 307°
2026-05-06 08:27 47.50940 18.93933 5345 ft 257 kts 307°
2026-05-06 08:27 47.51456 18.93091 5240 ft 257 kts 307°
2026-05-06 08:27 47.52246 18.91888 5106 ft 258 kts 316°
2026-05-06 08:28 47.53862 18.90767 4975 ft 262 kts 347°
2026-05-06 08:28 47.55628 18.91000 4760 ft 266 kts 19°
2026-05-06 08:28 47.56964 18.92182 4609 ft 264 kts 38°
2026-05-06 08:28 47.58340 18.93961 4343 ft 262 kts 42°
2026-05-06 08:29 47.59475 18.95994 4103 ft 252 kts 68°
2026-05-06 08:29 47.59598 18.98410 3951 ft 227 kts 113°
2026-05-06 08:29 47.58743 19.00159 3841 ft 199 kts 145°
2026-05-06 08:29 47.57751 19.01503 3731 ft 189 kts 142°
2026-05-06 08:30 47.56840 19.02832 3617 ft 179 kts 141°
2026-05-06 08:30 47.56004 19.04116 3489 ft 169 kts 140°
2026-05-06 08:30 47.55217 19.05365 3452 ft 166 kts 140°
2026-05-06 08:30 47.54467 19.06565 3272 ft 172 kts 139°
2026-05-06 08:31 47.53670 19.07854 3077 ft 170 kts 139°
2026-05-06 08:31 47.52900 19.09102 2818 ft 163 kts 139°
2026-05-06 08:31 47.52143 19.10323 2608 ft 161 kts 139°
2026-05-06 08:31 47.51379 19.11554 2398 ft 164 kts 140°
2026-05-06 08:32 47.50657 19.12740 2189 ft 164 kts 139°
2026-05-06 08:32 47.49984 19.13919 1984 ft 159 kts 140°
2026-05-06 08:32 47.49335 19.15027 1870 ft 152 kts 142°
2026-05-06 08:33 47.48601 19.16152 1634 ft 154 kts 146°
2026-05-06 08:33 47.47839 19.17285 1416 ft 157 kts 140°
2026-05-06 08:33 47.47093 19.18443 1214 ft 153 kts 134°
2026-05-06 08:33 47.46399 19.19607 980 ft 149 kts 131°
2026-05-06 08:34 47.45716 19.20709 740 ft 142 kts 132°
2026-05-06 08:34 47.44483 19.22716 449 ft 113 kts 135°
2026-05-06 08:34 47.44050 19.23409 454 ft 71 kts 133°
2026-05-06 08:35 47.43800 19.23815 454 ft 40 kts 129°
2026-05-06 08:35 47.43689 19.24163 454 ft 36 kts 101°
2026-05-06 08:35 47.43613 19.24492 454 ft 33 kts 121°
2026-05-06 08:35 47.43476 19.24735 454 ft 30 kts 133°
2026-05-06 08:36 47.43345 19.24952 455 ft 24 kts 131°
2026-05-06 08:36 47.43251 19.25118 456 ft 17 kts 121°
2026-05-06 08:36 47.43261 19.25272 456 ft 16 kts 50°
2026-05-06 08:36 47.43330 19.25392 456 ft 15 kts 72°
2026-05-06 08:37 47.43287 19.25522 455 ft 15 kts 132°
2026-05-06 08:37 47.43260 19.25567 456 ft 14 kts 132°
2026-05-06 08:37 47.43252 19.25634 456 ft 11 kts 59°
2026-05-06 08:37 47.43295 19.25699 456 ft 6 kts 43°
2026-05-06 08:38 47.43302 19.25707 456 ft 0 kts 43°